Location: Oshawa
(43.9000°N, 78.8670°W)
Time: 08:19:47
(UTC-04:00)

Cosmos 1821 Rocket - Visible Passes

Search period start: 30 June 2016 00:00
Search period end: 10 July 2016 00:00
Orbit: 946 x 1004 km, 82.9° (Epoch: 28 June)

Date Brightness Start Highest point End Pass type
(mag) Time Alt. Az. Time Alt. Az. Time Alt. Az.
30 Jun 6.1 01:39:12 10° ESE 01:42:59 17° E 01:46:47 10° NE visible
30 Jun 4.0 03:23:32 25° SSW 03:27:31 81° W 03:33:57 10° N visible
01 Jul 5.4 02:04:14 17° SE 02:07:52 29° E 02:13:14 10° NNE visible
01 Jul 4.5 03:48:54 21° SW 03:52:58 47° WNW 03:59:07 10° N visible
02 Jul 4.6 02:29:35 27° SSE 02:32:55 51° E 02:39:05 10° NNE visible
02 Jul 5.2 04:14:15 14° WSW 04:18:35 28° WNW 04:23:57 10° NNW visible
03 Jul 6.2 01:10:41 10° ESE 01:13:45 14° ENE 01:16:49 10° NE visible
03 Jul 4.0 02:54:55 32° S 02:58:08 88° ESE 03:04:34 10° N visible
03 Jul 5.8 04:40:37 10° W 04:44:25 16° WNW 04:48:14 10° NNW visible
04 Jul 5.6 01:35:34 18° ESE 01:38:36 25° E 01:43:38 10° NNE visible
04 Jul 4.3 03:20:14 28° SW 03:23:33 54° WNW 03:29:48 10° N visible
05 Jul 4.8 02:00:52 29° SE 02:03:36 44° E 02:09:35 10° NNE visible
05 Jul 5.1 03:45:32 19° WSW 03:49:06 32° WNW 03:54:45 10° N visible
06 Jul 6.2 00:42:31 10° E 00:44:32 12° ENE 00:46:34 10° ENE visible
06 Jul 4.1 02:26:10 38° S 02:28:47 77° E 02:35:10 10° N visible
06 Jul 5.7 04:10:50 11° WSW 04:14:53 19° WNW 04:19:13 10° NNW visible
07 Jul 5.7 01:06:47 17° ESE 01:09:19 22° E 01:13:58 10° NE visible
07 Jul 4.2 02:51:27 35° SSW 02:54:07 63° W 03:00:28 10° N visible
07 Jul 6.2 04:40:00 10° WNW 04:40:52 10° WNW 04:41:44 10° NW visible
08 Jul 4.9 01:32:03 29° SE 01:34:17 38° E 01:40:05 10° NNE visible
08 Jul 4.9 03:16:43 25° WSW 03:19:39 36° WNW 03:25:29 10° N visible
09 Jul 4.2 01:57:19 43° SSE 01:59:25 66° E 02:05:44 10° NNE visible
09 Jul 5.6 03:41:58 15° WSW 03:45:22 22° WNW 03:50:07 10° NNW visible
